Location: Date Creek
(34.2167°N, 113.0301°W)
Time: 15:42:56
(UTC-07:00)

OTV 5 (USA 277) - Visible Passes

Search period start: 21 January 2018 00:00
Search period end: 31 January 2018 00:00
Orbit: 404 x 417 km, 43.0° (Epoch: 07 September)

Date Brightness Start Highest point End Pass type
(mag) Time Alt. Az. Time Alt. Az. Time Alt. Az.
21 Jan ? 19:02:00 10° SW 19:05:12 43° SE 19:06:10 33° E visible
22 Jan ? 19:48:11 10° W 19:50:30 34° WNW 19:50:30 34° WNW visible
23 Jan ? 18:56:57 10° WSW 19:00:19 68° NNW 19:02:01 26° NE visible
24 Jan ? 19:43:56 10° WNW 19:46:14 24° NNW 19:46:14 24° NNW visible
25 Jan ? 18:52:32 10° W 18:55:36 32° NNW 18:57:40 17° NE visible
26 Jan ? 19:39:49 10° NW 19:41:48 18° NNW 19:41:48 18° NNW visible
27 Jan ? 18:48:24 10° WNW 18:51:03 21° N 18:53:11 13° NE visible
28 Jan ? 19:35:27 10° NW 19:37:20 17° N 19:37:20 17° N visible
29 Jan ? 18:44:12 10° NW 18:46:36 18° N 18:48:43 11° NE visible
30 Jan ? 19:30:41 10° NW 19:32:55 21° N 19:32:55 21° N visible
